Location: Libas
(9.8833°N, 125.9833°E)
Time: 10:11:54
(UTC+00:00)

Envisat - Pass Details

Date: 22 January 2021
Orbit: 764 x 766 km, 98.1° (Epoch: 27 February)

Event Time Altitude Azimuth Distance (km) Brightness Sun altitude
Rises 19:58:51 0° 44° (NE) 3,219 6.6 -28.8°
Reaches altitude 10° 20:02:17 10° 68° (ENE) 2,293 6.1 -28.0°
Maximum altitude 20:04:53 14° 100° (E) 2,017 6.0 -27.4°
Drops below altitude 10° 20:07:29 10° 131° (SE) 2,293 6.3 -26.8°
Sets 20:10:53 0° 155° (SSE) 3,219 6.8 -26.0°
